TimeMST,TemperatureF,Dew PointF,Humidity,Sea Level PressureIn,VisibilityMPH,Wind Direction,Wind SpeedMPH,Gust SpeedMPH,PrecipitationIn,Events,Conditions,WindDirDegrees,DateUTC
12:15 AM,5.0,-0.4,78,29.77,10.0,Calm,Calm,-,N/A,,Clear,0,2013-12-16 07:15:00
12:35 AM,6.8,-0.4,72,29.78,10.0,Calm,Calm,-,N/A,,Mostly Cloudy,0,2013-12-16 07:35:00
12:55 AM,6.8,1.4,79,29.79,10.0,West,4.6,-,N/A,,Overcast,270,2013-12-16 07:55:00
1:15 AM,10.4,6.8,85,29.80,10.0,WNW,8.1,-,N/A,,Overcast,290,2013-12-16 08:15:00
1:35 AM,26.6,23.0,86,29.80,10.0,NW,17.3,-,N/A,,Overcast,320,2013-12-16 08:35:00
1:55 AM,30.2,24.8,80,29.83,10.0,NW,19.6,-,N/A,,Mostly Cloudy,310,2013-12-16 08:55:00
2:15 AM,30.2,24.8,80,29.84,10.0,NW,18.4,-,N/A,,Mostly Cloudy,320,2013-12-16 09:15:00
2:35 AM,30.2,24.8,80,29.85,9.0,NW,13.8,-,N/A,,Overcast,320,2013-12-16 09:35:00
2:55 AM,32.0,26.6,80,29.86,10.0,NW,12.7,-,N/A,,Overcast,310,2013-12-16 09:55:00
3:15 AM,32.0,26.6,80,29.86,10.0,WNW,11.5,-,N/A,,Overcast,300,2013-12-16 10:15:00
3:35 AM,30.2,26.6,86,29.84,10.0,WNW,12.7,-,N/A,,Mostly Cloudy,290,2013-12-16 10:35:00
3:55 AM,28.4,24.8,86,29.85,10.0,WNW,13.8,-,N/A,,Partly Cloudy,300,2013-12-16 10:55:00
4:15 AM,32.0,26.6,80,29.86,10.0,WNW,19.6,-,N/A,,Mostly Cloudy,290,2013-12-16 11:15:00
4:35 AM,32.0,26.6,80,29.86,10.0,WNW,20.7,-,N/A,,Overcast,300,2013-12-16 11:35:00
4:55 AM,32.0,26.6,80,29.86,10.0,WNW,16.1,23.0,N/A,,Overcast,300,2013-12-16 11:55:00
5:15 AM,33.8,24.8,70,29.85,10.0,WNW,18.4,25.3,N/A,,Mostly Cloudy,290,2013-12-16 12:15:00
5:35 AM,32.0,24.8,75,29.86,10.0,NW,17.3,-,N/A,,Mostly Cloudy,310,2013-12-16 12:35:00
5:55 AM,32.0,24.8,75,29.86,10.0,WNW,19.6,-,N/A,,Overcast,300,2013-12-16 12:55:00
6:15 AM,33.8,23.0,65,29.87,10.0,WNW,21.9,-,N/A,,Overcast,300,2013-12-16 13:15:00
6:35 AM,33.8,24.8,70,29.88,10.0,WNW,21.9,27.6,N/A,,Overcast,290,2013-12-16 13:35:00
6:55 AM,33.8,24.8,70,29.89,10.0,WNW,19.6,28.8,N/A,,Mostly Cloudy,290,2013-12-16 13:55:00
7:15 AM,32.0,23.0,69,29.89,10.0,WNW,21.9,-,N/A,,Mostly Cloudy,290,2013-12-16 14:15:00
7:35 AM,32.0,23.0,69,29.91,10.0,WNW,20.7,26.5,N/A,,Overcast,300,2013-12-16 14:35:00
7:55 AM,32.0,23.0,69,29.91,10.0,WNW,19.6,26.5,N/A,,Overcast,290,2013-12-16 14:55:00
8:15 AM,32.0,23.0,69,29.91,10.0,WNW,20.7,-,N/A,,Mostly Cloudy,290,2013-12-16 15:15:00
8:35 AM,33.8,23.0,65,29.93,10.0,WNW,18.4,-,N/A,,Mostly Cloudy,290,2013-12-16 15:35:00
8:55 AM,33.8,24.8,70,29.95,10.0,WNW,18.4,-,N/A,,Overcast,290,2013-12-16 15:55:00
9:15 AM,33.8,24.8,70,29.96,10.0,WNW,15.0,21.9,N/A,,Mostly Cloudy,290,2013-12-16 16:15:00
9:35 AM,33.8,24.8,70,29.97,10.0,WNW,18.4,-,N/A,,Mostly Cloudy,290,2013-12-16 16:35:00
9:55 AM,33.8,24.8,70,29.95,10.0,WNW,15.0,21.9,N/A,,Scattered Clouds,290,2013-12-16 16:55:00
10:15 AM,37.4,24.8,60,29.95,10.0,WNW,17.3,-,N/A,,Clear,290,2013-12-16 17:15:00
10:35 AM,35.6,24.8,65,29.95,10.0,WNW,16.1,-,N/A,,Clear,290,2013-12-16 17:35:00
10:55 AM,35.6,24.8,65,29.95,10.0,NW,16.1,-,N/A,,Clear,310,2013-12-16 17:55:00
11:15 AM,35.6,26.6,70,29.94,10.0,WNW,18.4,26.5,N/A,,Clear,300,2013-12-16 18:15:00
11:35 AM,35.6,26.6,70,29.95,10.0,WNW,17.3,24.2,N/A,,Clear,300,2013-12-16 18:35:00
11:55 AM,35.6,26.6,70,29.95,10.0,WNW,15.0,21.9,N/A,,Clear,290,2013-12-16 18:55:00
12:15 PM,35.6,26.6,70,29.94,10.0,West,15.0,-,N/A,,Clear,280,2013-12-16 19:15:00
12:35 PM,35.6,26.6,70,29.94,10.0,WNW,16.1,25.3,N/A,,Clear,290,2013-12-16 19:35:00
12:55 PM,35.6,26.6,70,29.94,10.0,WNW,17.3,-,N/A,,Clear,300,2013-12-16 19:55:00
1:15 PM,35.6,26.6,70,29.94,10.0,WNW,16.1,24.2,N/A,,Clear,290,2013-12-16 20:15:00
1:35 PM,35.6,26.6,70,29.94,10.0,West,23.0,28.8,N/A,,Clear,280,2013-12-16 20:35:00
1:55 PM,35.6,26.6,70,29.93,10.0,West,25.3,36.8,N/A,,Clear,270,2013-12-16 20:55:00
2:15 PM,35.6,26.6,70,29.93,10.0,West,26.5,34.5,N/A,,Partly Cloudy,270,2013-12-16 21:15:00
2:35 PM,35.6,26.6,70,29.94,10.0,West,23.0,31.1,N/A,,Partly Cloudy,270,2013-12-16 21:35:00
2:55 PM,33.8,26.6,75,29.95,10.0,West,23.0,31.1,N/A,,Partly Cloudy,270,2013-12-16 21:55:00
3:15 PM,33.8,26.6,75,29.96,10.0,West,26.5,34.5,N/A,,Partly Cloudy,270,2013-12-16 22:15:00
3:35 PM,33.8,26.6,75,29.99,10.0,WNW,24.2,31.1,N/A,,Scattered Clouds,290,2013-12-16 22:35:00
3:55 PM,33.8,26.6,75,29.99,10.0,West,19.6,26.5,N/A,,Overcast,280,2013-12-16 22:55:00
4:15 PM,33.8,28.4,81,30.01,10.0,WNW,18.4,-,N/A,,Overcast,290,2013-12-16 23:15:00
4:35 PM,33.8,26.6,75,30.02,10.0,WNW,20.7,27.6,N/A,,Overcast,290,2013-12-16 23:35:00
4:55 PM,33.8,26.6,75,30.02,10.0,West,20.7,26.5,N/A,,Overcast,280,2013-12-16 23:55:00
5:15 PM,32.0,26.6,80,30.00,10.0,West,19.6,-,N/A,,Mostly Cloudy,270,2013-12-17 00:15:00
5:35 PM,32.0,26.6,80,29.99,10.0,West,19.6,27.6,N/A,,Partly Cloudy,260,2013-12-17 00:35:00
5:55 PM,30.2,24.8,80,29.99,10.0,West,18.4,-,N/A,,Scattered Clouds,260,2013-12-17 00:55:00
6:15 PM,30.2,24.8,80,30.00,10.0,West,18.4,24.2,N/A,,Overcast,270,2013-12-17 01:15:00
6:35 PM,32.0,24.8,75,30.01,10.0,West,19.6,-,N/A,,Overcast,270,2013-12-17 01:35:00
6:55 PM,32.0,24.8,75,30.01,10.0,West,17.3,25.3,N/A,,Overcast,270,2013-12-17 01:55:00
7:15 PM,32.0,24.8,75,30.01,10.0,West,18.4,-,N/A,,Overcast,270,2013-12-17 02:15:00
7:35 PM,30.2,24.8,80,30.01,10.0,West,18.4,25.3,N/A,,Overcast,270,2013-12-17 02:35:00
7:55 PM,30.2,24.8,80,30.01,10.0,West,17.3,24.2,N/A,,Overcast,270,2013-12-17 02:55:00
8:15 PM,30.2,24.8,80,30.01,10.0,West,21.9,-,N/A,,Overcast,270,2013-12-17 03:15:00
8:35 PM,32.0,26.6,80,30.01,10.0,West,25.3,34.5,N/A,,Overcast,270,2013-12-17 03:35:00
8:55 PM,32.0,26.6,80,30.01,10.0,West,25.3,32.2,N/A,,Overcast,270,2013-12-17 03:55:00
9:15 PM,32.0,24.8,75,30.00,10.0,West,26.5,35.7,N/A,,Overcast,270,2013-12-17 04:15:00
9:35 PM,33.8,24.8,70,30.01,10.0,West,26.5,35.7,N/A,,Overcast,280,2013-12-17 04:35:00
9:55 PM,33.8,23.0,65,30.02,10.0,West,25.3,35.7,N/A,,Overcast,280,2013-12-17 04:55:00
10:15 PM,32.0,21.2,64,30.03,10.0,WNW,23.0,-,N/A,,Overcast,290,2013-12-17 05:15:00
10:55 PM,32.0,21.2,64,30.05,10.0,WNW,20.7,27.6,N/A,,Overcast,290,2013-12-17 05:55:00
11:15 PM,30.2,21.2,69,30.05,10.0,WNW,18.4,25.3,N/A,,Overcast,290,2013-12-17 06:15:00
11:35 PM,30.2,21.2,69,30.05,10.0,WNW,17.3,-,N/A,,Overcast,290,2013-12-17 06:35:00
11:55 PM,30.2,21.2,69,30.06,10.0,WNW,16.1,23.0,N/A,,Overcast,290,2013-12-17 06:55:00